[[{"header":{"parameterUnit":"m.s-1","parameterCategory":2,"la1":30.2991,"la2":30.254,"lo1":-89.0895,"lo2":-89.0444,"dy":0.0017,"dx":0.0017,"nx":28,"ny":28,"refTime":"2023-10-18T03:00:00:Z","depth":"0","parameterNumber":2,"parameterNumberName":"U-component_of_CURRENTS"},"data":[0,0,0,0,0,0,0,0,0,0,0,0,0,0,0,0,0,0,0,0,0,0,0,0,0,0,0,0,0,0,0,0,0,0,0,0,0,0,0,0,0,0,0,0,0,0,0,0,0,0,0,0,0,0,0,0,0,0,-0.2174,-0.2176,0,-0.2223,-0.2223,-0.2223,-0.2135,-0.2133,-0.2131,-0.2129,-0.2013,-0.2012,-0.201,0,0,0,0,0,0,0,0,0,0,0,0,0,-0.1983,-0.1986,-0.2174,-0.2176,-0.2178,-0.2224,-0.2223,-0.2222,-0.2135,-0.2133,-0.2131,-0.2129,-0.2014,-0.2012,-0.201,0,0,0,0,0,0,0,0,0,0,0,0,0,-0.204,-0.1987,-0.2174,-0.2149,-0.2148,-0.2224,-0.2223,-0.2222,-0.2135,-0.2133,-0.213,-0.2128,-0.2014,-0.2012,-0.201,-0.2051,0,0,-0.2003,-0.2003,0,0,0,0,0,0,0,0,-0.2037,-0.2046,-0.2151,-0.2151,-0.215,-0.2181,-0.2114,-0.2161,-0.2136,-0.2127,-0.2129,-0.2126,-0.2064,-0.2058,-0.2058,-0.2046,-0.2041,-0.2003,-0.2002,-0.2001,-0.2,0,0,0,0,0,0,0,-0.2033,-0.2043,-0.2181,-0.2153,-0.2153,-0.2129,-0.2132,-0.2122,-0.2097,-0.2128,-0.2124,-0.2151,-0.2061,-0.206,-0.2054,-0.2039,-0.2003,-0.2001,-0.2,-0.1999,-0.2057,-0.2059,0,0,0,0,0,0,-0.2058,-0.204,-0.218,-0.2184,-0.21,-0.2135,-0.2139,-0.2164,-0.2101,-0.2094,-0.2153,-0.2147,-0.2065,-0.2057,-0.2049,-0.2104,-0.2001,-0.1999,-0.1998,-0.2054,-0.2057,-0.206,0,0,0,0,0,0,-0.2053,-0.2069,-0.2178,-0.2122,-0.2136,-0.2143,-0.217,-0.2166,-0.2167,-0.2125,-0.2111,-0.2159,-0.2062,-0.2052,-0.2035,-0.2098,-0.1998,-0.1996,-0.2051,-0.2055,-0.2059,-0.2207,0,0,0,0,0,0,-0.2047,-0.2067,-0.2079,-0.2125,-0.2141,-0.2238,-0.2174,-0.217,-0.2194,-0.2185,-0.2126,-0.2112,-0.206,-0.2039,-0.2033,-0.2093,-0.1995,-0.2047,-0.2053,-0.2058,-0.2199,-0.2216,-0.2231,0,0,0,0,0,-0.204,-0.2079,-0.2079,-0.2096,-0.2162,-0.2242,-0.2247,-0.2233,-0.2197,-0.2217,-0.216,-0.2114,-0.2069,-0.2039,-0.2031,-0.2093,-0.2045,-0.2051,-0.2057,-0.2192,-0.2213,-0.2231,0,0,0,0,0,0,-0.2001,-0.2077,-0.2077,-0.2135,-0.2193,-0.2232,-0.2252,-0.2251,-0.2227,-0.2201,-0.2137,-0.2121,-0.2135,-0.2097,-0.2066,-0.2127,-0.2056,-0.2061,-0.2161,-0.218,-0.2196,-0.2167,-0.1993,0,0,0,0,0,-0.2006,-0.2044,-0.2123,-0.2165,-0.2201,-0.2228,-0.2253,-0.2256,-0.2257,-0.2243,-0.2207,-0.2171,-0.2162,-0.2152,-0.2131,-0.2162,-0.2089,-0.2202,-0.2218,-0.2232,-0.2205,-0.215,-0.2157,-0.2081,-0.2081,-0.2081,0,0,-0.1997,-0.2049,-0.2065,-0.2158,-0.219,-0.2254,-0.2233,-0.2289,-0.2322,-0.2235,-0.2243,-0.2221,-0.2181,-0.2208,-0.2214,-0.218,-0.2225,-0.224,-0.2252,-0.2217,-0.2157,-0.2163,-0.2169,-0.2085,-0.2085,-0.2084,0,0,-0.2016,-0.2056,-0.2098,-0.2165,-0.2248,-0.2273,-0.2301,-0.2357,-0.2358,-0.2383,-0.2334,-0.2343,-0.2322,-0.2318,-0.2309,-0.2405,-0.2308,-0.2417,-0.2475,-0.2424,-0.2429,-0.2431,-0.2381,-0.2378,-0.2429,-0.2429,-0.2429,0,-0.1992,-0.2077,-0.2124,-0.2201,-0.2256,-0.2289,-0.2357,-0.2383,-0.2417,-0.2421,-0.2394,-0.2384,-0.2374,-0.2403,-0.2445,-0.2442,-0.2379,-0.2407,-0.2442,-0.2443,-0.2443,-0.2389,-0.2384,-0.2437,-0.2436,-0.2435,-0.2435,0,-0.2061,-0.2132,-0.2175,-0.2269,-0.2327,-0.2403,-0.2467,-0.2497,-0.2498,-0.2512,-0.2536,-0.2521,-0.2503,-0.2544,-0.252,-0.2551,-0.2496,-0.2465,-0.2386,-0.2459,-0.2399,-0.2391,-0.2448,-0.2446,-0.2443,-0.2441,0,0,-0.1997,-0.218,-0.2195,-0.2249,-0.2378,-0.2424,-0.2495,-0.2562,-0.2571,-0.2605,-0.2608,-0.2658,-0.2634,-0.2623,-0.2623,-0.2606,-0.2601,-0.2544,-0.2538,-0.2481,-0.2468,-0.2361,-0.234,-0.2559,-0.2558,-0.2557,-0.2437,0,-0.2032,-0.2176,-0.2261,-0.2368,-0.2446,-0.2511,-0.2563,-0.2614,-0.2635,-0.2642,-0.2655,-0.2647,-0.2672,-0.2658,-0.2659,-0.259,-0.2578,-0.2634,-0.2414,-0.2408,-0.2292,-0.2327,-0.2196,-0.207,-0.2428,-0.2426,-0.2425,0,-0.2068,-0.2168,-0.2291,-0.2416,-0.2451,-0.2501,-0.2563,-0.2615,-0.265,-0.2655,-0.2667,-0.2653,-0.2662,-0.265,-0.258,-0.2602,-0.2549,-0.2504,-0.2497,-0.2323,-0.2282,-0.2049,-0.2039,-0.2032,-0.2411,-0.2412,-0.2413,0,-0.1992,-0.2173,-0.2261,-0.232,-0.2468,-0.2497,-0.2544,-0.2603,-0.2622,-0.2638,-0.262,-0.2633,-0.2584,-0.2545,-0.2486,-0.2512,-0.2363,-0.2384,-0.2245,-0.2237,-0.2041,-0.2016,-0.1975,-0.2321,-0.2321,-0.2321,-0.2322,0,-0.2003,-0.2062,-0.2227,-0.228,-0.2322,-0.2444,-0.2458,-0.2504,-0.2556,-0.2543,-0.2599,-0.2566,-0.2543,-0.2474,-0.2448,-0.2299,-0.2329,-0.2234,-0.2189,-0.2095,-0.2078,-0.1991,-0.2044,-0.2317,-0.2318,-0.2319,-0.2319,0,-0.189,-0.2026,-0.2108,-0.2263,-0.2287,-0.23,-0.2379,-0.2393,-0.2459,-0.2435,-0.2429,-0.2464,-0.2358,-0.2333,-0.2228,-0.2202,-0.2059,-0.2052,-0.1945,-0.1889,-0.1759,-0.1825,-0.1717,-0.1672,-0.1875,-0.1872,-0.1869,0,-0.1848,-0.1891,-0.2027,-0.2041,-0.21,-0.2144,-0.2163,-0.2291,-0.2313,-0.2358,-0.233,-0.2264,-0.2175,-0.2007,-0.1923,-0.1813,-0.1885,-0.1665,-0.1709,-0.1713,-0.1754,-0.1831,-0.1809,-0.1528,-0.1522,-0.1518,-0.1514,0,-0.172,-0.1761,-0.1814,-0.1851,-0.1886,-0.192,-0.1973,-0.1998,-0.2122,-0.2116,-0.208,-0.202,-0.1877,-0.1692,-0.1571,-0.1518,-0.1625,-0.1567,-0.1586,-0.1482,-0.1541,-0.1488,-0.1669,-0.1474,-0.1478,-0.1481,-0.1483,-0.1484,-0.1558,-0.1547,-0.1598,-0.1612,-0.1654,-0.1668,-0.1616,-0.1702,-0.1699,-0.1633,-0.1753,-0.1551,-0.1528,-0.1321,-0.1273,-0.1165,-0.1298,-0.1153,-0.1233,-0.1312,-0.1263,-0.1355,-0.1104,-0.1106,-0.1108,-0.1109,-0.111,0,-0.1342,-0.134,-0.1347,-0.1358,-0.1324,-0.1419,-0.1447,-0.1373,-0.1291,-0.1251,-0.1165,-0.1031,-0.0937,-0.0941,-0.0915,-0.0869,-0.0892,-0.0877,-0.097,-0.0965,-0.1024,-0.1001,-0.0694,-0.0694,-0.0694,-0.0694,-0.0694,-0.0694,-0.1223,-0.1137,-0.1161,-0.1024,-0.1025,-0.0912,-0.0891,-0.0809,-0.074,-0.0535,-0.0382,-0.0329,-0.0553,-0.0809,-0.0822,-0.0776,-0.0831,-0.0776,-0.087,-0.094,-0.0974,-0.1006,-0.0995,-0.0692,-0.0692,-0.0734,-0.0734,-0.0735]},{"header":{"parameterUnit":"m.s-1","parameterCategory":2,"la1":30.2991,"la2":30.254,"lo1":-89.0895,"lo2":-89.0444,"dy":0.0017,"dx":0.0017,"nx":28,"ny":28,"refTime":"2023-10-18T03:00:00:Z","depth":"0","parameterNumber":3,"parameterNumberName":"V-component_of_CURRENTS"},"data":[0,0,0,0,0,0,0,0,0,0,0,0,0,0,0,0,0,0,0,0,0,0,0,0,0,0,0,0,0,0,0,0,0,0,0,0,0,0,0,0,0,0,0,0,0,0,0,0,0,0,0,0,0,0,0,0,0,0,0.0513,0.0515,0,0.0666,0.0668,0.0669,0.0758,0.0758,0.0759,0.076,0.091,0.0913,0.0917,0,0,0,0,0,0,0,0,0,0,0,0,0,0.0296,0.0299,0.0513,0.0515,0.0517,0.0666,0.0668,0.067,0.0758,0.0758,0.0759,0.076,0.0909,0.0913,0.0917,0,0,0,0,0,0,0,0,0,0,0,0,0,0.0411,0.03,0.0512,0.0581,0.0589,0.0666,0.0668,0.067,0.0758,0.0758,0.0759,0.076,0.0908,0.0913,0.0918,0.0933,0,0,0.0934,0.0936,0,0,0,0,0,0,0,0,0.0404,0.0419,0.0569,0.0576,0.0585,0.0696,0.0647,0.0759,0.0757,0.0691,0.076,0.0761,0.0839,0.085,0.0874,0.094,0.0946,0.0934,0.0937,0.094,0.0941,0,0,0,0,0,0,0,0.0396,0.0413,0.0571,0.0571,0.0581,0.0604,0.0621,0.0668,0.0756,0.0697,0.0704,0.0725,0.0844,0.0868,0.0878,0.0949,0.0934,0.0939,0.0942,0.0944,0.105,0.105,0,0,0,0,0,0,0.0382,0.0405,0.0566,0.0576,0.0498,0.0607,0.0626,0.0657,0.0756,0.0773,0.0724,0.0729,0.0859,0.0872,0.0883,0.0899,0.094,0.0944,0.0947,0.1051,0.105,0.105,0,0,0,0,0,0,0.0377,0.0395,0.056,0.0495,0.0518,0.0611,0.0645,0.066,0.0684,0.0778,0.0794,0.0732,0.086,0.0876,0.0935,0.0906,0.0947,0.0952,0.1051,0.105,0.105,0.0936,0,0,0,0,0,0,0.037,0.0393,0.0397,0.0495,0.0521,0.0589,0.0645,0.0663,0.0697,0.0704,0.079,0.0805,0.0862,0.0926,0.094,0.0914,0.0956,0.1051,0.1051,0.105,0.094,0.0932,0.0925,0,0,0,0,0,0.0362,0.0363,0.0397,0.0416,0.0529,0.0588,0.0603,0.067,0.0696,0.0696,0.077,0.0802,0.0932,0.0931,0.0947,0.0921,0.1052,0.1051,0.105,0.0944,0.0934,0.0925,0,0,0,0,0,0,0.0266,0.0375,0.0414,0.0447,0.0506,0.0604,0.0608,0.0658,0.0715,0.0723,0.0809,0.0829,0.0859,0.0914,0.0911,0.0952,0.0992,0.0994,0.0906,0.0897,0.0889,0.088,0.096,0,0,0,0,0,0.0249,0.0279,0.0381,0.0401,0.0427,0.0514,0.0543,0.0592,0.0663,0.0689,0.0752,0.0819,0.0867,0.0903,0.0948,0.0982,0.1002,0.0975,0.0967,0.096,0.0964,0.0976,0.0969,0.1048,0.1048,0.1048,0,0,0.0218,0.0279,0.0296,0.0381,0.0431,0.0454,0.0532,0.0569,0.0589,0.0695,0.0727,0.0786,0.0868,0.09,0.0918,0.0946,0.094,0.0959,0.0952,0.096,0.0974,0.0966,0.0959,0.1047,0.1047,0.1047,0,0,0.0156,0.0221,0.0221,0.0268,0.0341,0.0397,0.0402,0.0494,0.0532,0.0581,0.0653,0.071,0.0784,0.0846,0.0885,0.0866,0.0887,0.0866,0.0832,0.0842,0.0835,0.0829,0.0802,0.0795,0.0874,0.0874,0.0874,0,0.0109,0.0135,0.0223,0.0233,0.0263,0.0363,0.0363,0.0414,0.0511,0.0552,0.0572,0.0697,0.076,0.082,0.0816,0.0846,0.0841,0.0855,0.0829,0.0824,0.082,0.0795,0.0788,0.0869,0.0869,0.087,0.087,0,0.0054,0.0073,0.0071,0.0123,0.0162,0.0176,0.0269,0.0307,0.0365,0.0437,0.0502,0.0594,0.0679,0.0693,0.0753,0.0763,0.0759,0.0801,0.0844,0.0805,0.078,0.0776,0.0861,0.0863,0.0864,0.0866,0,0,-0.0047,0.0019,0.0015,0.0031,0.0109,0.0142,0.0172,0.0249,0.0284,0.0364,0.0401,0.0501,0.0568,0.0617,0.0688,0.071,0.0667,0.0738,0.0742,0.0695,0.0648,0.072,0.0723,0.0692,0.0692,0.0692,0.0625,0,-0.0123,-0.0136,-0.0074,-0.0082,-0.0074,0.0033,0.0064,0.0152,0.0225,0.0281,0.0392,0.0445,0.0532,0.0561,0.0599,0.0638,0.0656,0.0679,0.0709,0.071,0.0766,0.0722,0.0779,0.0733,0.0621,0.0621,0.062,0,-0.0196,-0.0192,-0.0216,-0.015,-0.0135,-0.0123,-0.0035,0.0011,0.0128,0.0185,0.0272,0.0353,0.0409,0.0477,0.0536,0.0536,0.059,0.0626,0.0625,0.0738,0.0776,0.0766,0.073,0.0884,0.0614,0.0614,0.0615,0,-0.0297,-0.0282,-0.0304,-0.0285,-0.0205,-0.0186,-0.0138,-0.002,0.0024,0.0115,0.0125,0.0239,0.0253,0.0338,0.0455,0.0469,0.0503,0.0532,0.0653,0.0656,0.0739,0.0752,0.0852,0.0585,0.0586,0.0586,0.0586,0,-0.0385,-0.0397,-0.0355,-0.0361,-0.0365,-0.0269,-0.0245,-0.0171,-0.0091,-0.0064,0.0061,0.0086,0.0215,0.0279,0.0393,0.0505,0.046,0.0635,0.0652,0.0699,0.0709,0.0879,0.0943,0.0583,0.0584,0.0584,0.0585,0,-0.0471,-0.0452,-0.0464,-0.042,-0.0409,-0.0403,-0.0331,-0.0306,-0.0232,-0.0218,-0.0208,-0.0078,0.0013,0.0166,0.0288,0.0408,0.0622,0.0595,0.063,0.0655,0.0905,0.0959,0.1046,0.1156,0.0664,0.0666,0.0667,0,-0.0506,-0.0529,-0.0521,-0.0531,-0.0517,-0.0496,-0.0476,-0.0387,-0.0373,-0.0302,-0.032,-0.0218,-0.0082,0.0131,0.0354,0.0551,0.0693,0.0708,0.0779,0.0925,0.0997,0.1018,0.1106,0.0809,0.0811,0.0813,0.0815,0,-0.056,-0.0562,-0.057,-0.0602,-0.0611,-0.0612,-0.0596,-0.0609,-0.0521,-0.0485,-0.0389,-0.0268,-0.0036,0.0262,0.0521,0.0645,0.0833,0.0754,0.0903,0.1122,0.1153,0.1266,0.0815,0.0832,0.083,0.0829,0.0828,0.0827,-0.058,-0.0609,-0.0616,-0.0641,-0.0669,-0.0701,-0.0689,-0.0662,-0.0612,-0.0483,-0.0365,-0.0053,0.0264,0.0671,0.0802,0.1061,0.1002,0.1152,0.1194,0.1193,0.1353,0.0935,0.0994,0.0993,0.0993,0.0992,0.0992,0,-0.0571,-0.0599,-0.0639,-0.0668,-0.0704,-0.0707,-0.0731,-0.0685,-0.0606,-0.04,-0.0166,0.0457,0.0782,0.1054,0.1347,0.1506,0.1542,0.1562,0.161,0.1676,0.1301,0.137,0.152,0.152,0.152,0.1519,0.1519,0.1519,-0.0563,-0.059,-0.0617,-0.0663,-0.0692,-0.0699,-0.0703,-0.0624,-0.0466,-0.0025,0.0439,0.0829,0.1222,0.1588,0.1873,0.19,0.207,0.2004,0.2102,0.1859,0.1824,0.179,0.1873,0.2126,0.2126,0.2484,0.2488,0.249]}],[{"header":{"parameterUnit":"m.s-1","parameterCategory":2,"la1":30.2991,"la2":30.254,"lo1":-89.0895,"lo2":-89.0444,"dy":0.0017,"dx":0.0017,"nx":28,"ny":28,"refTime":"2023-10-18T03:00:00:Z","depth":"2","parameterNumber":2,"parameterNumberName":"U-component_of_CURRENTS"},"data":[0,0,0,0,0,0,0,0,0,0,0,0,0,0,0,0,0,0,0,0,0,0,0,0,0,0,0,0,0,0,0,0,0,0,0,0,0,0,0,0,0,0,0,0,0,0,0,0,0,0,0,0,0,0,0,0,0,0,-0.2307,-0.231,0,-0.244,-0.244,-0.244,-0.2558,-0.2561,-0.2564,-0.2566,-0.2679,-0.2679,-0.2679,0,0,0,0,0,0,0,0,0,0,0,0,0,-0.2164,-0.2164,-0.2307,-0.231,-0.2313,-0.244,-0.244,-0.244,-0.2557,-0.2561,-0.2564,-0.2568,-0.2679,-0.2679,-0.2679,0,0,0,0,0,0,0,0,0,0,0,0,0,-0.2236,-0.2164,-0.2306,-0.24,-0.2411,-0.244,-0.244,-0.244,-0.2556,-0.2561,-0.2565,-0.257,-0.2679,-0.2679,-0.2679,-0.2589,0,0,-0.268,-0.268,0,0,0,0,0,0,0,0,-0.2232,-0.2239,-0.2383,-0.2394,-0.2407,-0.2503,-0.2432,-0.2495,-0.2555,-0.2482,-0.2567,-0.2572,-0.2626,-0.2631,-0.262,-0.2594,-0.2599,-0.268,-0.268,-0.268,-0.268,0,0,0,0,0,0,0,-0.2227,-0.2234,-0.2341,-0.2387,-0.2401,-0.2441,-0.2454,-0.2443,-0.2512,-0.2489,-0.2502,-0.2544,-0.2631,-0.262,-0.2624,-0.2601,-0.268,-0.268,-0.268,-0.268,-0.2835,-0.2839,0,0,0,0,0,0,-0.2241,-0.2229,-0.2337,-0.2347,-0.235,-0.2441,-0.2455,-0.2452,-0.2513,-0.2533,-0.2541,-0.255,-0.2617,-0.2624,-0.2629,-0.2767,-0.268,-0.268,-0.268,-0.2831,-0.2836,-0.2841,0,0,0,0,0,0,-0.2237,-0.2247,-0.2332,-0.2309,-0.2325,-0.2441,-0.2436,-0.2453,-0.2481,-0.2557,-0.2573,-0.2559,-0.2621,-0.2628,-0.2725,-0.2763,-0.268,-0.268,-0.2827,-0.2833,-0.2838,-0.2888,0,0,0,0,0,0,-0.2231,-0.2243,-0.2265,-0.2308,-0.2328,-0.2404,-0.2434,-0.2453,-0.2508,-0.2521,-0.2576,-0.2589,-0.2625,-0.2725,-0.2725,-0.2762,-0.2681,-0.2822,-0.2829,-0.2836,-0.2882,-0.2895,-0.2907,0,0,0,0,0,-0.2224,-0.2254,-0.2263,-0.228,-0.2344,-0.2408,-0.2419,-0.2505,-0.2504,-0.2537,-0.261,-0.259,-0.2773,-0.2728,-0.2727,-0.2765,-0.2818,-0.2827,-0.2836,-0.2876,-0.2893,-0.2907,0,0,0,0,0,0,-0.2233,-0.2271,-0.2282,-0.2329,-0.2386,-0.2437,-0.2494,-0.25,-0.2565,-0.2594,-0.2622,-0.2643,-0.2749,-0.2751,-0.2699,-0.2843,-0.2796,-0.2805,-0.2827,-0.2843,-0.2855,-0.2786,-0.2681,0,0,0,0,0,-0.2231,-0.2247,-0.2301,-0.2344,-0.2373,-0.2411,-0.245,-0.2495,-0.2558,-0.2589,-0.2646,-0.2711,-0.2769,-0.2805,-0.2867,-0.2908,-0.2822,-0.2944,-0.2957,-0.2967,-0.2918,-0.28,-0.2793,-0.287,-0.287,-0.287,0,0,-0.2259,-0.2278,-0.2298,-0.2346,-0.2388,-0.2437,-0.2444,-0.2519,-0.2562,-0.2586,-0.2691,-0.2754,-0.2797,-0.2897,-0.294,-0.2908,-0.2922,-0.2978,-0.2986,-0.293,-0.2808,-0.2798,-0.279,-0.2876,-0.2875,-0.2874,0,0,-0.2299,-0.2322,-0.2343,-0.2384,-0.2461,-0.2488,-0.2506,-0.2577,-0.2621,-0.2697,-0.276,-0.2829,-0.2917,-0.2965,-0.2985,-0.3079,-0.2998,-0.3145,-0.3132,-0.3021,-0.3009,-0.2999,-0.2944,-0.2928,-0.3141,-0.3141,-0.3141,0,-0.2323,-0.2345,-0.2371,-0.2405,-0.2448,-0.2503,-0.2539,-0.2587,-0.2693,-0.2706,-0.2758,-0.2857,-0.2921,-0.2964,-0.3062,-0.3093,-0.3047,-0.3063,-0.3024,-0.3012,-0.2999,-0.2945,-0.2926,-0.3145,-0.3144,-0.3144,-0.3144,0,-0.2372,-0.2402,-0.2431,-0.2468,-0.2516,-0.2571,-0.2636,-0.2695,-0.2734,-0.2762,-0.283,-0.2909,-0.2942,-0.3017,-0.3078,-0.3068,-0.3074,-0.3051,-0.2957,-0.2992,-0.2938,-0.2917,-0.315,-0.3148,-0.3147,-0.3147,0,0,-0.2363,-0.2437,-0.245,-0.2457,-0.2545,-0.2574,-0.2653,-0.2697,-0.2697,-0.28,-0.2771,-0.2919,-0.2927,-0.2953,-0.3029,-0.2982,-0.2924,-0.3012,-0.3005,-0.2908,-0.2724,-0.2652,-0.2622,-0.2896,-0.2891,-0.2887,-0.2741,0,-0.2381,-0.2423,-0.2469,-0.2524,-0.2541,-0.2604,-0.2646,-0.2698,-0.274,-0.2753,-0.2778,-0.2813,-0.2911,-0.2936,-0.2904,-0.2935,-0.2863,-0.2968,-0.2745,-0.2739,-0.2625,-0.2591,-0.2437,-0.2283,-0.2719,-0.2715,-0.2713,0,-0.2393,-0.2411,-0.2451,-0.248,-0.2494,-0.2544,-0.2567,-0.2614,-0.2644,-0.2661,-0.2666,-0.2703,-0.2722,-0.2756,-0.2699,-0.2775,-0.2741,-0.2731,-0.2723,-0.2597,-0.2623,-0.2312,-0.2227,-0.2676,-0.2679,-0.2682,-0.2684,0,-0.2315,-0.2388,-0.2401,-0.2426,-0.2486,-0.2504,-0.2539,-0.258,-0.2588,-0.2593,-0.2586,-0.2578,-0.2574,-0.2516,-0.2565,-0.2621,-0.245,-0.249,-0.2365,-0.2363,-0.2148,-0.2132,-0.2331,-0.2331,-0.2332,-0.2332,-0.2332,0,-0.2288,-0.2295,-0.2369,-0.2373,-0.2359,-0.2436,-0.2421,-0.245,-0.2477,-0.2456,-0.2528,-0.2499,-0.251,-0.2461,-0.2474,-0.236,-0.2346,-0.2317,-0.2284,-0.2178,-0.2168,-0.2435,-0.2449,-0.2327,-0.2328,-0.2329,-0.233,0,-0.2203,-0.2257,-0.2257,-0.2317,-0.2314,-0.2313,-0.2349,-0.2341,-0.2393,-0.2363,-0.2365,-0.2411,-0.2344,-0.2336,-0.2238,-0.2225,-0.2131,-0.2074,-0.1991,-0.1949,-0.2151,-0.2171,-0.19,-0.1896,-0.1892,-0.1889,-0.1886,0,-0.2154,-0.2145,-0.2181,-0.2162,-0.2194,-0.2198,-0.2184,-0.2261,-0.227,-0.2308,-0.2283,-0.2244,-0.2187,-0.2042,-0.1954,-0.184,-0.1966,-0.1666,-0.1708,-0.2092,-0.2089,-0.2115,-0.214,-0.1485,-0.1479,-0.1474,-0.1471,0,-0.2049,-0.2077,-0.2098,-0.2027,-0.2025,-0.2014,-0.2031,-0.2033,-0.2116,-0.2117,-0.2103,-0.2064,-0.1925,-0.1737,-0.1606,-0.1544,-0.1682,-0.1565,-0.1891,-0.1634,-0.1691,-0.1693,-0.1731,-0.1428,-0.1433,-0.1436,-0.1438,-0.144,-0.1967,-0.1956,-0.1953,-0.1882,-0.1872,-0.1838,-0.1791,-0.184,-0.1827,-0.1822,-0.1898,-0.1797,-0.1713,-0.1424,-0.1303,-0.1212,-0.1341,-0.1322,-0.1339,-0.1361,-0.1355,-0.1402,-0.1088,-0.109,-0.1092,-0.1094,-0.1095,0,-0.1863,-0.1837,-0.177,-0.1711,-0.1647,-0.1675,-0.1667,-0.1618,-0.1569,-0.1603,-0.1584,-0.1394,-0.1236,-0.1155,-0.0926,-0.0872,-0.0893,-0.0857,-0.0901,-0.0941,-0.0977,-0.0957,-0.0581,-0.058,-0.0579,-0.0578,0,0,-0.1801,-0.1701,-0.1651,-0.148,-0.1442,-0.133,-0.1308,-0.1263,-0.1258,-0.1191,-0.1153,-0.1252,-0.1176,-0.0928,-0.0819,-0.067,-0.0818,-0.063,-0.1039,-0.1136,-0.1172,-0.123,-0.124,0,0,0,0,0]},{"header":{"parameterUnit":"m.s-1","parameterCategory":2,"la1":30.2991,"la2":30.254,"lo1":-89.0895,"lo2":-89.0444,"dy":0.0017,"dx":0.0017,"nx":28,"ny":28,"refTime":"2023-10-18T03:00:00:Z","depth":"2","parameterNumber":3,"parameterNumberName":"V-component_of_CURRENTS"},"data":[0,0,0,0,0,0,0,0,0,0,0,0,0,0,0,0,0,0,0,0,0,0,0,0,0,0,0,0,0,0,0,0,0,0,0,0,0,0,0,0,0,0,0,0,0,0,0,0,0,0,0,0,0,0,0,0,0,0,-0.047,-0.0469,0,-0.0372,-0.0371,-0.037,-0.0264,-0.0262,-0.026,-0.0258,-0.0065,-0.0061,-0.0058,0,0,0,0,0,0,0,0,0,0,0,0,0,-0.0501,-0.0502,-0.047,-0.0468,-0.0467,-0.0372,-0.0371,-0.037,-0.0264,-0.0262,-0.026,-0.0258,-0.0066,-0.0062,-0.0058,0,0,0,0,0,0,0,0,0,0,0,0,0,-0.0457,-0.0502,-0.047,-0.04,-0.0393,-0.0372,-0.0371,-0.037,-0.0265,-0.0262,-0.0259,-0.0257,-0.0067,-0.0062,-0.0057,-0.008,0,0,-0.0041,-0.0039,0,0,0,0,0,0,0,0,-0.046,-0.0457,-0.0412,-0.0405,-0.0396,-0.0324,-0.0311,-0.0267,-0.0265,-0.0317,-0.0258,-0.0255,-0.0142,-0.0131,-0.0125,-0.0071,-0.0063,-0.0041,-0.0038,-0.0035,-0.0034,0,0,0,0,0,0,0,-0.0463,-0.046,-0.0435,-0.0411,-0.0401,-0.0351,-0.0343,-0.0302,-0.0247,-0.0312,-0.0303,-0.0288,-0.0138,-0.013,-0.0119,-0.006,-0.0041,-0.0036,-0.0033,-0.0031,0.0157,0.0159,0,0,0,0,0,0,-0.0476,-0.0464,-0.0438,-0.0431,-0.0418,-0.0353,-0.0344,-0.0353,-0.0249,-0.0231,-0.029,-0.0283,-0.014,-0.0125,-0.0112,-0.0014,-0.0035,-0.0031,-0.0028,0.0155,0.0158,0.016,0,0,0,0,0,0,-0.0477,-0.0475,-0.0441,-0.044,-0.0432,-0.0356,-0.0367,-0.0352,-0.0329,-0.0233,-0.0213,-0.0279,-0.0138,-0.0119,-0.0047,-0.001,-0.0028,-0.0024,0.0153,0.0156,0.0159,0.0106,0,0,0,0,0,0,-0.0479,-0.0477,-0.0477,-0.0443,-0.0433,-0.0433,-0.0368,-0.0352,-0.0323,-0.0313,-0.0217,-0.0197,-0.0134,-0.0055,-0.0042,-0.0003,-0.0019,0.0151,0.0154,0.0158,0.0105,0.0106,0.0107,0,0,0,0,0,-0.0481,-0.0497,-0.0479,-0.0474,-0.044,-0.0434,-0.0425,-0.0362,-0.0326,-0.0329,-0.0242,-0.0199,-0.0021,-0.0051,-0.0036,0.0006,0.0149,0.0153,0.0158,0.0104,0.0106,0.0107,0,0,0,0,0,0,-0.051,-0.0487,-0.0466,-0.0473,-0.0455,-0.0414,-0.0401,-0.0371,-0.0312,-0.0284,-0.0198,-0.0173,-0.0093,-0.0041,-0.0075,0.0076,0.0079,0.0087,0.0034,0.0036,0.0037,-0.0014,-0.0015,0,0,0,0,0,-0.0521,-0.0527,-0.05,-0.0507,-0.0499,-0.0455,-0.0439,-0.0403,-0.0349,-0.0321,-0.0247,-0.0151,-0.007,-0.0017,0.0051,0.0114,0.0134,0.0162,0.0163,0.0164,0.0136,0.0162,0.016,0.0174,0.0174,0.0174,0,0,-0.0536,-0.0521,-0.0524,-0.0513,-0.0489,-0.0488,-0.0439,-0.0421,-0.0395,-0.0309,-0.0239,-0.0161,-0.0056,0.003,0.0074,0.0084,0.0185,0.0169,0.0168,0.014,0.0165,0.0163,0.0162,0.0177,0.0176,0.0176,0,0,-0.0571,-0.0558,-0.0571,-0.0562,-0.0529,-0.0506,-0.0507,-0.046,-0.041,-0.0357,-0.0261,-0.0176,-0.0062,0.0027,0.0086,0.0127,0.0176,0.0181,0.0157,0.0183,0.018,0.0178,0.0245,0.0249,0.0196,0.0196,0.0196,0,-0.0585,-0.0602,-0.0575,-0.0581,-0.0566,-0.0522,-0.0529,-0.0487,-0.0413,-0.0369,-0.0335,-0.0161,-0.007,0.0038,0.0081,0.0125,0.0161,0.0138,0.0178,0.0176,0.0174,0.0243,0.0248,0.0194,0.0194,0.0194,0.0195,0,-0.0626,-0.0634,-0.0644,-0.0636,-0.062,-0.0625,-0.0567,-0.053,-0.0468,-0.0414,-0.0309,-0.0198,-0.0098,-0.0027,0.0046,0.0115,0.0153,0.0158,0.0156,0.0168,0.0243,0.0249,0.0191,0.0192,0.0192,0.0193,0,0,-0.068,-0.0675,-0.0679,-0.0676,-0.0647,-0.0642,-0.0599,-0.0549,-0.0514,-0.0427,-0.0375,-0.0217,-0.0167,-0.0098,0.0009,0.0061,0.0118,0.0114,0.0117,0.0151,0.0207,0.0232,0.0241,0.0125,0.0125,0.0125,0.0278,0,-0.0721,-0.075,-0.0726,-0.0743,-0.0752,-0.0693,-0.0662,-0.0598,-0.0528,-0.0467,-0.0347,-0.0264,-0.0188,-0.0127,-0.0071,0.008,0.0125,0.0078,0.0216,0.0221,0.0214,0.0245,0.024,0.0373,0.0284,0.0285,0.0286,0,-0.0768,-0.0779,-0.0812,-0.0788,-0.0784,-0.0783,-0.0722,-0.0684,-0.0585,-0.0525,-0.0449,-0.036,-0.0231,-0.02,-0.0008,-0.0038,0.0064,0.016,0.0168,0.0198,0.0253,0.0343,0.0388,0.0296,0.0295,0.0294,0.0294,0,-0.0822,-0.0831,-0.0859,-0.0857,-0.0833,-0.0817,-0.0789,-0.0706,-0.0656,-0.0571,-0.0522,-0.0406,-0.0309,-0.0205,0.0003,0.0002,0.0193,0.0211,0.0318,0.0324,0.0348,0.0354,0.028,0.028,0.0279,0.0279,0.0279,0,-0.0882,-0.0899,-0.0891,-0.0912,-0.0918,-0.0871,-0.0855,-0.0804,-0.0729,-0.0669,-0.0564,-0.0483,-0.031,-0.0167,-0.0025,0.0179,0.0164,0.0309,0.0351,0.0339,0.0342,0.0283,0.0281,0.0285,0.0284,0.0282,0.0281,0,-0.0945,-0.0948,-0.0973,-0.0961,-0.0954,-0.0956,-0.0902,-0.0883,-0.0801,-0.0723,-0.0693,-0.0514,-0.0316,-0.0145,0.0073,0.0175,0.0341,0.0399,0.0395,0.0432,0.047,0.0464,0.0547,0.0548,0.055,0.0551,0.0552,0,-0.0977,-0.1009,-0.1017,-0.1029,-0.1029,-0.102,-0.101,-0.0937,-0.0901,-0.0724,-0.0683,-0.0479,-0.0309,0.0016,0.0211,0.0435,0.0407,0.0536,0.0509,0.0457,0.0491,0.0483,0.0475,0.0558,0.0559,0.056,0.0561,0,-0.104,-0.1051,-0.1073,-0.1095,-0.1101,-0.1098,-0.1068,-0.105,-0.0939,-0.0839,-0.0654,-0.05,-0.0166,0.0105,0.0363,0.0478,0.0497,0.0561,0.0507,0.0471,0.0474,0.0505,0.0496,0.0568,0.0567,0.0567,0.0567,0.0566,-0.1076,-0.1102,-0.1132,-0.1144,-0.1159,-0.1161,-0.1147,-0.1091,-0.1012,-0.0831,-0.0676,-0.0412,-0.0137,0.0258,0.0455,0.0613,0.0606,0.0641,0.0636,0.0631,0.0584,0.0587,0.0698,0.0698,0.0698,0.0698,0.0698,0,-0.1109,-0.1136,-0.1163,-0.1184,-0.1207,-0.1197,-0.1169,-0.112,-0.1021,-0.0821,-0.0629,-0.0311,0.0002,0.0269,0.056,0.0728,0.0702,0.0725,0.0676,0.0668,0.0661,0.0614,0.0737,0.0738,0.0738,0.0738,0,0,-0.1127,-0.1159,-0.1166,-0.121,-0.1229,-0.1233,-0.1215,-0.1116,-0.0969,-0.0748,-0.0549,-0.032,0.004,0.0238,0.0463,0.0623,0.0588,0.0617,0.0571,0.0481,0.0472,0.0604,0.0521,0,0,0,0,0]}],[{"header":{"parameterUnit":"m.s-1","parameterCategory":2,"la1":30.2991,"la2":30.254,"lo1":-89.0895,"lo2":-89.0444,"dy":0.0017,"dx":0.0017,"nx":28,"ny":28,"refTime":"2023-10-18T03:00:00:Z","depth":"4","parameterNumber":2,"parameterNumberName":"U-component_of_CURRENTS"},"data":[0,0,0,0,0,0,0,0,0,0,0,0,0,0,0,0,0,0,0,0,0,0,0,0,0,0,0,0,0,0,0,0,0,0,0,0,0,0,0,0,0,0,0,0,0,0,0,0,0,0,0,0,0,0,0,0,0,0,-0.1393,-0.1394,0,-0.1497,-0.1498,-0.1499,-0.1527,-0.1527,-0.1527,-0.1526,-0.161,-0.1612,-0.1615,0,0,0,0,0,0,0,0,0,0,0,0,0,-0.13,-0.13,-0.1393,-0.1394,-0.1395,-0.1496,-0.1498,-0.1499,-0.1528,-0.1527,-0.1526,-0.1526,-0.1609,-0.1612,-0.1615,0,0,0,0,0,0,0,0,0,0,0,0,0,-0.1364,-0.1301,-0.1392,-0.1423,-0.1427,-0.1496,-0.1498,-0.1499,-0.1528,-0.1527,-0.1526,-0.1526,-0.1608,-0.1612,-0.1616,-0.1655,0,0,-0.1628,-0.163,0,0,0,0,0,0,0,0,-0.136,-0.1367,-0.1417,-0.1421,-0.1425,-0.15,-0.1496,-0.1551,-0.1528,-0.1488,-0.1526,-0.1525,-0.1572,-0.1579,-0.1599,-0.1659,-0.1662,-0.1628,-0.1631,-0.1632,-0.1634,0,0,0,0,0,0,0,-0.1355,-0.1363,-0.1432,-0.1418,-0.1424,-0.1459,-0.1467,-0.1507,-0.1531,-0.1491,-0.1494,-0.1508,-0.1574,-0.1595,-0.1601,-0.1663,-0.1628,-0.1632,-0.1634,-0.1636,-0.1786,-0.1788,0,0,0,0,0,0,-0.1342,-0.1359,-0.1429,-0.1436,-0.1392,-0.1461,-0.1469,-0.1475,-0.1532,-0.154,-0.1508,-0.1509,-0.1588,-0.1596,-0.1604,-0.1671,-0.1632,-0.1636,-0.1638,-0.1785,-0.1787,-0.1788,0,0,0,0,0,0,-0.1339,-0.1347,-0.1425,-0.1401,-0.1414,-0.1463,-0.147,-0.1478,-0.152,-0.1545,-0.1553,-0.1545,-0.1588,-0.1598,-0.1653,-0.1673,-0.1638,-0.1642,-0.1783,-0.1785,-0.1788,-0.1794,0,0,0,0,0,0,-0.1336,-0.1345,-0.1364,-0.14,-0.1414,-0.1474,-0.1471,-0.148,-0.1529,-0.1531,-0.1579,-0.1584,-0.1588,-0.1647,-0.1657,-0.1678,-0.1645,-0.1781,-0.1784,-0.1787,-0.1791,-0.1796,-0.18,0,0,0,0,0,-0.1332,-0.1358,-0.1364,-0.1374,-0.1432,-0.1475,-0.1487,-0.1518,-0.1532,-0.1554,-0.1586,-0.1584,-0.1673,-0.1652,-0.1664,-0.1686,-0.1779,-0.1783,-0.1787,-0.179,-0.1795,-0.18,0,0,0,0,0,0,-0.1325,-0.1365,-0.1371,-0.1407,-0.1441,-0.1481,-0.1515,-0.1537,-0.1583,-0.1593,-0.161,-0.1619,-0.1674,-0.1688,-0.1664,-0.174,-0.1725,-0.1731,-0.1723,-0.1729,-0.1733,-0.1713,-0.1648,0,0,0,0,0,-0.1332,-0.1363,-0.1396,-0.1426,-0.1445,-0.1486,-0.1517,-0.1538,-0.1576,-0.1597,-0.1625,-0.1661,-0.1697,-0.1718,-0.1751,-0.18,-0.1798,-0.1821,-0.1826,-0.1829,-0.1822,-0.1868,-0.1875,-0.18,-0.18,-0.18,0,0,-0.1334,-0.1365,-0.138,-0.1428,-0.1459,-0.1493,-0.1503,-0.1554,-0.1584,-0.16,-0.1656,-0.1684,-0.1716,-0.176,-0.1786,-0.1774,-0.1843,-0.1833,-0.1836,-0.1827,-0.1872,-0.1879,-0.1886,-0.1803,-0.1802,-0.1802,0,0,-0.1347,-0.1383,-0.1407,-0.1442,-0.1497,-0.1523,-0.1542,-0.1592,-0.1616,-0.1675,-0.1687,-0.1722,-0.1791,-0.1797,-0.1815,-0.1868,-0.1868,-0.1892,-0.1894,-0.1939,-0.1944,-0.195,-0.1921,-0.1924,-0.189,-0.189,-0.189,0,-0.1352,-0.1383,-0.1422,-0.1457,-0.1491,-0.1536,-0.1566,-0.1604,-0.1664,-0.1682,-0.1695,-0.1786,-0.1801,-0.1846,-0.1851,-0.1873,-0.1885,-0.1867,-0.1942,-0.1947,-0.1953,-0.1922,-0.1925,-0.189,-0.189,-0.189,-0.189,0,-0.1372,-0.1411,-0.1434,-0.1487,-0.1526,-0.157,-0.1614,-0.1655,-0.1696,-0.1722,-0.1786,-0.1818,-0.1865,-0.1877,-0.1877,-0.1925,-0.1914,-0.1943,-0.1922,-0.196,-0.1926,-0.1928,-0.1891,-0.1891,-0.1891,-0.1891,0,0,-0.1347,-0.1431,-0.1441,-0.147,-0.1551,-0.1581,-0.1634,-0.1683,-0.1725,-0.1777,-0.1827,-0.1866,-0.1887,-0.1908,-0.1924,-0.1947,-0.1966,-0.1959,-0.1961,-0.1914,-0.2026,-0.1865,-0.1852,-0.2028,-0.203,-0.2031,-0.1973,0,-0.1352,-0.141,-0.1457,-0.1517,-0.1547,-0.1611,-0.1658,-0.171,-0.1763,-0.1823,-0.1855,-0.1917,-0.1902,-0.1939,-0.196,-0.1984,-0.1982,-0.1976,-0.2009,-0.2008,-0.1849,-0.1853,-0.2036,-0.1975,-0.1975,-0.1976,-0.1976,0,-0.1351,-0.1393,-0.1444,-0.153,-0.1551,-0.16,-0.1685,-0.1734,-0.1815,-0.1859,-0.1917,-0.196,-0.1993,-0.1997,-0.2025,-0.2034,-0.202,-0.2022,-0.2021,-0.187,-0.1853,-0.194,-0.1981,-0.1981,-0.198,-0.198,-0.198,0,-0.1299,-0.1386,-0.1427,-0.146,-0.1559,-0.1599,-0.1657,-0.1739,-0.1792,-0.1888,-0.1943,-0.2,-0.2041,-0.2065,-0.204,-0.206,-0.2058,-0.2091,-0.1917,-0.1903,-0.2064,-0.2059,-0.2101,-0.2101,-0.2101,-0.2101,-0.2101,0,-0.1279,-0.1318,-0.1412,-0.1439,-0.1498,-0.1576,-0.1658,-0.1718,-0.1825,-0.1878,-0.1961,-0.2004,-0.2071,-0.2076,-0.2058,-0.1965,-0.2069,-0.1895,-0.1884,-0.2062,-0.2059,-0.2062,-0.2059,-0.2099,-0.2099,-0.21,-0.21,0,-0.1203,-0.1277,-0.1325,-0.1431,-0.1476,-0.151,-0.1658,-0.1713,-0.1819,-0.1897,-0.1933,-0.2018,-0.1999,-0.2008,-0.2016,-0.1956,-0.1909,-0.1846,-0.1975,-0.1976,-0.1716,-0.1714,-0.1659,-0.1653,-0.1648,-0.1643,-0.164,0,-0.1171,-0.1189,-0.1294,-0.1339,-0.1394,-0.1483,-0.1552,-0.1686,-0.1741,-0.1876,-0.1891,-0.1924,-0.1947,-0.1805,-0.1839,-0.1759,-0.1741,-0.1708,-0.1753,-0.1679,-0.1675,-0.1681,-0.1686,-0.1632,-0.163,-0.1629,-0.1628,0,-0.1097,-0.1136,-0.1171,-0.1252,-0.1332,-0.1413,-0.1515,-0.155,-0.1686,-0.1806,-0.1795,-0.1778,-0.1732,-0.1695,-0.1619,-0.1582,-0.174,-0.1654,-0.1666,-0.1709,-0.1646,-0.1648,-0.1659,-0.161,-0.1612,-0.1614,-0.1615,0,-0.1041,-0.1035,-0.1092,-0.1152,-0.1246,-0.1299,-0.1378,-0.144,-0.1509,-0.1653,-0.1635,-0.1656,-0.171,-0.1599,-0.1546,-0.1471,-0.1464,-0.1448,-0.147,-0.149,-0.1461,-0.1357,-0.1205,0,0,0,0,0,-0.0974,-0.0967,-0.1007,-0.1063,-0.1144,-0.1198,-0.1334,-0.1417,-0.1548,-0.1493,-0.1563,-0.1507,-0.1433,-0.1448,-0.1327,-0.1458,-0.1462,-0.1316,-0.1457,-0.1511,-0.1532,-0.1512,0,0,0,0,0,0,-0.0937,-0.0959,-0.0958,-0.0967,-0.099,-0.1072,-0.1148,-0.1247,-0.123,-0.1359,-0.131,-0.1409,-0.1335,-0.1445,-0.1286,-0.1287,-0.1346,-0.1334,-0.133,-0.15,-0.1518,-0.1535,-0.1521,0,0,0,0,0]},{"header":{"parameterUnit":"m.s-1","parameterCategory":2,"la1":30.2991,"la2":30.254,"lo1":-89.0895,"lo2":-89.0444,"dy":0.0017,"dx":0.0017,"nx":28,"ny":28,"refTime":"2023-10-18T03:00:00:Z","depth":"4","parameterNumber":3,"parameterNumberName":"V-component_of_CURRENTS"},"data":[0,0,0,0,0,0,0,0,0,0,0,0,0,0,0,0,0,0,0,0,0,0,0,0,0,0,0,0,0,0,0,0,0,0,0,0,0,0,0,0,0,0,0,0,0,0,0,0,0,0,0,0,0,0,0,0,0,0,-0.0406,-0.0406,0,-0.0384,-0.0384,-0.0384,-0.0367,-0.0367,-0.0367,-0.0367,-0.0298,-0.0296,-0.0295,0,0,0,0,0,0,0,0,0,0,0,0,0,-0.0392,-0.0392,-0.0406,-0.0406,-0.0406,-0.0384,-0.0384,-0.0384,-0.0367,-0.0367,-0.0367,-0.0367,-0.0299,-0.0297,-0.0295,0,0,0,0,0,0,0,0,0,0,0,0,0,-0.0387,-0.0393,-0.0407,-0.0395,-0.0394,-0.0384,-0.0384,-0.0384,-0.0367,-0.0367,-0.0367,-0.0367,-0.0299,-0.0297,-0.0294,-0.0283,0,0,-0.0287,-0.0286,0,0,0,0,0,0,0,0,-0.0387,-0.0387,-0.0397,-0.0396,-0.0394,-0.0378,-0.0354,-0.0348,-0.0367,-0.0377,-0.0367,-0.0366,-0.0321,-0.0316,-0.0313,-0.028,-0.0277,-0.0286,-0.0285,-0.0284,-0.0283,0,0,0,0,0,0,0,-0.0388,-0.0388,-0.0398,-0.0397,-0.0395,-0.0376,-0.0376,-0.0352,-0.035,-0.0376,-0.0375,-0.0373,-0.032,-0.0316,-0.0312,-0.0276,-0.0286,-0.0284,-0.0283,-0.0282,-0.0261,-0.0262,0,0,0,0,0,0,-0.0393,-0.0389,-0.0398,-0.0397,-0.039,-0.0377,-0.0376,-0.0384,-0.0351,-0.0346,-0.0373,-0.0372,-0.032,-0.0315,-0.0309,-0.0324,-0.0284,-0.0281,-0.028,-0.026,-0.0262,-0.0263,0,0,0,0,0,0,-0.0393,-0.0395,-0.0399,-0.0392,-0.0391,-0.0378,-0.0386,-0.0383,-0.0383,-0.0349,-0.0343,-0.0376,-0.032,-0.0313,-0.0303,-0.032,-0.028,-0.0278,-0.0259,-0.0261,-0.0262,-0.0335,0,0,0,0,0,0,-0.0393,-0.0395,-0.0404,-0.0392,-0.0392,-0.0407,-0.0386,-0.0383,-0.0382,-0.038,-0.0349,-0.0342,-0.0319,-0.0307,-0.0301,-0.0316,-0.0276,-0.0258,-0.026,-0.0262,-0.0332,-0.0339,-0.0345,0,0,0,0,0,-0.0393,-0.0409,-0.0405,-0.0406,-0.0405,-0.0408,-0.0407,-0.0395,-0.0382,-0.0392,-0.0372,-0.0343,-0.0314,-0.0306,-0.0298,-0.0313,-0.0257,-0.0259,-0.0261,-0.0328,-0.0338,-0.0345,0,0,0,0,0,0,-0.0408,-0.0409,-0.0404,-0.042,-0.042,-0.0406,-0.0413,-0.04,-0.0391,-0.0388,-0.0353,-0.0346,-0.0344,-0.0319,-0.0311,-0.0314,-0.0282,-0.0283,-0.0336,-0.0344,-0.035,-0.0338,-0.0274,0,0,0,0,0,-0.0416,-0.0429,-0.0424,-0.0437,-0.0441,-0.0426,-0.0425,-0.0418,-0.0406,-0.0402,-0.0381,-0.0359,-0.0346,-0.0338,-0.0321,-0.0319,-0.0249,-0.0325,-0.0332,-0.0338,-0.0323,-0.0216,-0.0211,-0.027,-0.027,-0.027,0,0,-0.0427,-0.0427,-0.0435,-0.0441,-0.0439,-0.0451,-0.0426,-0.0432,-0.0436,-0.0395,-0.0397,-0.038,-0.0351,-0.0355,-0.0352,-0.0337,-0.0292,-0.0341,-0.0346,-0.0328,-0.0218,-0.0212,-0.0206,-0.0271,-0.0271,-0.0271,0,0,-0.0453,-0.0455,-0.0475,-0.0478,-0.0478,-0.0472,-0.0476,-0.0469,-0.0463,-0.0463,-0.0438,-0.0423,-0.041,-0.0388,-0.0376,-0.0405,-0.033,-0.0416,-0.044,-0.0338,-0.0331,-0.0324,-0.0253,-0.0239,-0.0421,-0.0421,-0.0421,0,-0.0467,-0.0488,-0.0481,-0.0499,-0.0501,-0.0485,-0.0503,-0.0498,-0.0487,-0.0477,-0.0474,-0.0436,-0.0418,-0.0401,-0.0427,-0.0418,-0.0357,-0.0413,-0.0343,-0.0335,-0.0326,-0.0255,-0.0238,-0.0425,-0.0424,-0.0424,-0.0423,0,-0.05,-0.0522,-0.0535,-0.0551,-0.0553,-0.0568,-0.0558,-0.0559,-0.0547,-0.0533,-0.0515,-0.0486,-0.0456,-0.0464,-0.046,-0.0412,-0.039,-0.0361,-0.0317,-0.0324,-0.025,-0.0231,-0.043,-0.0429,-0.0427,-0.0427,0,0,-0.0523,-0.0555,-0.0561,-0.0577,-0.0581,-0.0587,-0.0593,-0.059,-0.0582,-0.0569,-0.0542,-0.0538,-0.0509,-0.0492,-0.0475,-0.0407,-0.0321,-0.0375,-0.0368,-0.0297,-0.011,-0.015,-0.0133,-0.0276,-0.0273,-0.027,-0.0091,0,-0.0555,-0.06,-0.0601,-0.064,-0.066,-0.0645,-0.0649,-0.0636,-0.0617,-0.0589,-0.0544,-0.0517,-0.0523,-0.0507,-0.0442,-0.0342,-0.0271,-0.0373,-0.012,-0.0113,-0.0139,-0.0112,-0.026,-0.0077,-0.0072,-0.0069,-0.0067,0,-0.0585,-0.061,-0.0657,-0.0678,-0.0685,-0.0703,-0.069,-0.0691,-0.0645,-0.0622,-0.0578,-0.0533,-0.0457,-0.0445,-0.026,-0.0325,-0.0226,-0.0146,-0.0136,-0.0127,-0.0117,-0.0061,-0.0032,-0.0035,-0.0037,-0.004,-0.0042,0,-0.06,-0.0646,-0.0685,-0.0695,-0.0717,-0.0729,-0.0733,-0.0704,-0.0692,-0.0632,-0.0593,-0.0504,-0.0431,-0.0297,-0.0172,-0.0193,0.0051,0.0057,0.0117,0.0114,0.013,0.0121,0.0216,0.0216,0.0216,0.0215,0.0215,0,-0.0629,-0.0663,-0.0701,-0.0727,-0.076,-0.0755,-0.077,-0.0757,-0.0711,-0.0677,-0.061,-0.0536,-0.0383,-0.0245,-0.0136,0.0037,0.0092,0.013,0.017,0.0088,0.0072,0.0142,0.0131,0.0222,0.0221,0.0219,0.0218,0,-0.0646,-0.0678,-0.0725,-0.0762,-0.0778,-0.0798,-0.0809,-0.0805,-0.0754,-0.0694,-0.0666,-0.0524,-0.0341,-0.0203,0.0035,0.0092,0.0256,0.0304,0.0189,0.0217,0.0243,0.0226,0.0413,0.0413,0.0414,0.0414,0.0414,0,-0.0661,-0.0691,-0.0753,-0.0788,-0.0817,-0.0846,-0.0864,-0.0838,-0.0817,-0.068,-0.0638,-0.0456,-0.0355,-0.0047,0.0086,0.0298,0.031,0.0384,0.032,0.0249,0.027,0.0252,0.0235,0.0415,0.0415,0.0415,0.0415,0,-0.0682,-0.071,-0.0745,-0.0819,-0.0862,-0.0895,-0.0909,-0.0886,-0.0822,-0.0768,-0.0584,-0.0426,-0.0221,-0.0027,0.0124,0.0271,0.0328,0.0387,0.0388,0.0329,0.0253,0.027,0.0252,0.0416,0.0416,0.0416,0.0416,0,-0.0692,-0.0717,-0.0774,-0.0831,-0.0894,-0.0925,-0.0928,-0.0872,-0.0832,-0.0673,-0.0604,-0.0383,-0.0247,-0.0036,0.0111,0.0236,0.0265,0.0285,0.0292,0.0292,0.0175,0.0056,0.0214,0,0,0,0,0,-0.069,-0.0725,-0.0784,-0.0849,-0.0912,-0.0947,-0.0948,-0.0931,-0.0853,-0.0728,-0.0663,-0.0471,-0.0211,-0.0084,0.0039,0.0087,0.0255,0.0232,0.0273,0.0422,0.042,0.0297,0,0,0,0,0,0,-0.0695,-0.0749,-0.0776,-0.0853,-0.09,-0.096,-0.0962,-0.0911,-0.0829,-0.0725,-0.058,-0.0469,-0.0221,-0.0284,0.0036,0.0077,0.0113,0.0364,0.0365,0.0422,0.0421,0.042,0.0293,0,0,0,0,0]}]]